Current weather by "City, St" or "zip code"  
 
Advertise Here

Current Conditions: Shelbyville Municipal Airport, IN

Mostly Cloudy


76.0 F

Last Updated on Aug 4 2020, 5:53 pm EDT
Humidity: 50%
Wind Speed: NW 13.8 G 19.6 mph
Barometer 30.01 in
Dewpoint: 55.9 F
Visibility: 10.00 mi
Precip: --
Heat Index: NA
Wind Chill: NA
Current conditions at:

Shelbyville Municipal Airport, IN (KGEZ)

Lat: 39.58546 Lon: 85.79982

Local Radar Image active severe weather and emergency alerts image image weather storm and storm spotter reports image weather observation monitoring service image
Local
Radar
Active
Alerts
Storm Reports Obs
Monitoring

Sign-up For Email & Text Message Weather Alert Notification Services


Advertise Here

Observation History for Shelbyville Municipal Airport, IN


Time Wind
(mph)
Vis
(mi)
Weather Precip (in) Temperature (F) Relative
Humidity
Wind
Chill
(F)
Heat
Index
(F)
Pressure
Air Dwpt altimeter
(in)
sea level
(mb)
Rmks
5:53 pm EDT NW 13.8 G 19.6 10.00 Mostly Cloudy -- 76.0 55.9 50% NA NA 30.01 1015.7
4:53 pm EDT NW 10.4 10.00 Partly Cloudy -- 75.0 55.0 50% NA NA 30.01 1015.7
3:53 pm EDT NW 8.1 10.00 Overcast -- 76.0 57.0 52% NA NA 30.01 1015.6
2:53 pm EDT NW 6.9 10.00 A Few Clouds -- 76.0 57.9 54% NA NA 30.01 1015.6
1:53 pm EDT NW 9.2 10.00 Mostly Cloudy -- 74.0 59.0 60% NA NA 30.01 1015.6
12:53 pm EDT 10.00 Mostly Cloudy -- 75.0 61.0 62% NA NA 30.00 1015.3
11:53 am EDT N 9.2 10.00 A Few Clouds -- 74.0 62.1 67% NA NA 30.01 1015.5
10:53 am EDT N 9.2 10.00 Partly Cloudy -- 71.0 63.0 76% NA NA 30.00 1015.4
9:53 am EDT N 6.9 10.00 Mostly Cloudy -- 69.0 63.0 81% NA NA 29.99 1015.1
8:53 am EDT NW 9.2 9.00 Overcast Trace 66.0 62.1 87% NA NA 29.98 1014.8
7:53 am EDT N 8.1 9.00 Light Rain 00.01 65.0 61.0 87% NA NA 29.98 1014.7
6:53 am EDT NW 5.8 9.00 Light Rain Trace 65.0 61.0 87% NA NA 29.97 1014.4
5:53 am EDT N 0.0 10.00 Overcast -- 65.0 61.0 87% NA NA 29.95 1014.0
4:53 am EDT N 5.8 10.00 Mostly Cloudy -- 65.0 60.1 84% NA NA 29.94 1013.3
3:53 am EDT N 6.9 10.00 Mostly Cloudy -- 66.0 62.1 87% NA NA 29.94 1013.3
2:53 am EDT N 6.9 10.00 Partly Cloudy -- 65.0 62.1 90% NA NA 29.95 1013.7
1:53 am EDT N 0.0 8.00 Overcast -- 66.0 62.1 87% NA NA 29.96 1014.0
12:53 am EDT N 0.0 9.00 Fair -- 66.0 62.1 87% NA NA 29.96 1014.1
11:53 pm EDT N 4.6 6.00 Fog/Mist -- 67.0 63.0 87% NA NA 29.96 1013.9
10:53 pm EDT N 0.0 9.00 Fair -- 66.0 62.1 87% NA NA 29.97 1014.3
9:53 pm EDT N 0.0 10.00 Fair -- 67.0 63.0 87% NA NA 29.97 1014.1
8:53 pm EDT N 0.0 10.00 Mostly Cloudy -- 69.0 64.0 84% NA NA 29.95 1013.8
7:53 pm EDT E 3.5 10.00 A Few Clouds 00.04 69.0 64.0 84% NA NA 29.96 1014.1
6:53 pm EDT E 4.6 10.00 Mostly Cloudy 00.02 68.0 63.0 84% NA NA 29.96 1013.9

Regional Weather Observation


Indianapolis International Airport, IN (KIND)

Mostly Cloudy
75.0 F

Shelbyville Municipal Airport, IN (KGEZ)

Mostly Cloudy
76.0 F

Columbus / Bakalar, IN (KBAK)

Partly Cloudy
73.0 F

INDIANAPOLIS, IN (KTYQ)

Mostly Cloudy
69.0 F

Anderson Municipal Airport, IN (KAID)

Mostly Cloudy
72.0 F

Bloomington, Monroe County Airport, IN (KBMG)

Mostly Cloudy
76.0 F